Location: Cactus School
(34.5700°N, 118.0931°W)
Time: 01:30:11
(UTC-07:00)

Courier 1B - Pass Details

Date: 29 April 2024
Orbit: 962 x 1208 km, 28.3° (Epoch: 23 May)

Event Time Altitude Azimuth Distance (km) Brightness Sun altitude
Exits shadow 02:26:51 10° 117° (ESE) 2,995 10.0 -35.6°
Drops below altitude 10° 02:26:58 10° 117° (ESE) 3,031 10.1 -35.6°
Sets 02:29:38 0° 112° (ESE) 3,914 10.7 -35.3°
